Home > Weather > Tabriz > Past weeks

Flag for Iran Past Weather in Tabriz, Iran — Yesterday and Last 2 Weeks

Now
72 °F

Clear.


Feels Like: 76 °F
Forecast: 66 / 91 °F
Wind: 16 mph from East

Location: Tabriz Airport

Current Time: Jul 24, 2016 at 3:39:49 AM

Latest Report: Jul 24, 2016 at 3:00 AM


Visibility: 10 mi

Pressure: 29.89 "Hg (25.45 "Hg at 1388m altitude)

Humidity: 57%

Dew Point: 55 °F

Location of TabrizLocation

Past Weather in Tabriz — Graph

°F

Tabriz Temperature Yesterday

Maximum temperature yesterday: 93 °F (at 4:00 PM)
Minimum temperature yesterday: 73 °F (at 5:30 AM)
Average temperature yesterday: 82 °F

High & Low Weather Summary for the Past Weeks

 TemperatureHumidityPressure
High100 °F (Jul 21, 4:30 PM)68% (Jul 9, 6:00 AM)30.24 "Hg (Jul 9, 6:00 AM)
Low61 °F (Jul 13, 5:30 AM)7% (Jul 19, 4:30 PM)29.77 "Hg (Jul 11, 3:30 PM)
Average81 °F33%29.96 "Hg
* Reported Jul 9 1:30 AM — Jul 24 2:00 AM, Tabriz, Weather by CustomWeather, © 2016

Note: Actual official high and low records may vary slightly from our data, if they occured in-between our weather recording intervals... More about our weather records

Advertising

Tabriz Weather History for the Previous 24 Hours

Scroll right to see more
 ConditionsComfort  
Time TempWeatherWind HumidityBarometerVisibility
2:00 AM
Sun, Jul 24
73 °FClear.18 mph53%29.89 "Hg10 mi
1:30 AM73 °FClear.18 mph53%29.89 "Hg10 mi
1:00 AM73 °FClear.18 mph53%29.92 "Hg10 mi
12:30 AM75 °FClear.16 mph54%29.92 "Hg10 mi
12:00 AM75 °FClear.7 mph50%29.92 "Hg10 mi
11:30 PM
Sat, Jul 23
77 °FClear.14 mph51%29.92 "Hg10 mi
11:00 PM77 °FClear.14 mph51%29.89 "Hg10 mi
10:30 PM77 °FClear.14 mph51%29.89 "Hg10 mi
10:00 PM79 °FPassing clouds.14 mph45%29.86 "HgN/A
9:30 PM81 °FPassing clouds.16 mph42%29.86 "HgN/A
9:00 PM84 °FPassing clouds.18 mph40%29.86 "HgN/A
8:30 PM84 °FPassing clouds.18 mph40%29.86 "HgN/A
8:00 PM86 °FPassing clouds.21 mph35%29.86 "HgN/A
7:30 PM90 °FPassing clouds.9 mph27%29.86 "HgN/A
7:00 PM91 °FPassing clouds.14 mph24%29.86 "HgN/A
6:30 PM93 °FPassing clouds.7 mph23%29.86 "HgN/A
6:00 PM93 °FPassing clouds.12 mph23%29.86 "HgN/A
5:30 PM93 °FPassing clouds.5 mph23%29.86 "HgN/A
5:00 PM91 °FPassing clouds.5 mph24%29.86 "HgN/A
4:30 PM93 °FPassing clouds.5 mph23%29.86 "HgN/A
4:00 PM93 °FPassing clouds.7 mph24%29.86 "HgN/A
3:30 PM91 °FPassing clouds.12 mph26%29.89 "HgN/A
3:00 PM90 °FPassing clouds.12 mph27%29.89 "HgN/A
2:30 PM88 °FPassing clouds.7 mph27%29.89 "HgN/A
2:00 PM90 °FPassing clouds.12 mph26%29.89 "HgN/A
1:30 PM88 °FPassing clouds.12 mph29%29.92 "HgN/A
1:00 PM86 °FPassing clouds.18 mph35%29.92 "HgN/A
12:30 PM86 °FPassing clouds.21 mph35%29.92 "HgN/A
12:00 PM84 °FPassing clouds.9 mph37%29.95 "HgN/A
11:30 AM82 °FPassing clouds.16 mph42%29.95 "HgN/A
11:00 AM82 °FPassing clouds.14 mph42%29.95 "HgN/A
10:30 AM81 °FPassing clouds.16 mph45%29.95 "HgN/A
10:00 AM79 °FPassing clouds.14 mph51%29.98 "HgN/A
9:30 AM77 °FPassing clouds.16 mph54%29.98 "HgN/A
9:00 AM77 °FPassing clouds.7 mph54%29.98 "HgN/A
8:30 AM75 °FPassing clouds.7 mph57%29.98 "HgN/A
8:00 AM75 °FPassing clouds.7 mph57%29.98 "HgN/A
7:30 AM73 °FClear.12 mph57%29.95 "Hg10 mi
7:00 AM73 °FClear.12 mph61%29.95 "Hg10 mi
6:30 AM73 °FClear.9 mph57%29.95 "Hg10 mi
6:00 AM73 °FClear.7 mph57%29.95 "Hg10 mi
5:30 AM73 °FClear.12 mph57%29.95 "Hg10 mi
5:00 AM75 °FClear.14 mph54%29.95 "Hg10 mi
4:30 AM75 °FClear.9 mph54%29.95 "Hg10 mi
4:00 AM77 °FClear.14 mph51%29.92 "Hg10 mi
3:30 AM75 °FClear.5 mph50%29.92 "Hg10 mi
3:00 AM77 °FClear.7 mph47%29.92 "Hg10 mi
Weather by CustomWeather, © 2016

See weather overviewHow to use our weather pages